TimeEDT,TemperatureF,Dew PointF,Humidity,Sea Level PressureIn,VisibilityMPH,Wind Direction,Wind SpeedMPH,Gust SpeedMPH,PrecipitationIn,Events,Conditions,WindDirDegrees,DateUTC
12:15 AM,70.0,66.9,90,30.17,7.0,West,3.5,-,N/A,,Clear,270,2013-07-20 04:15:00
12:35 AM,68.9,66.2,91,30.15,5.0,Calm,Calm,-,N/A,,Clear,0,2013-07-20 04:35:00
12:55 AM,68.7,66.4,92,30.14,5.0,Calm,Calm,-,N/A,,Clear,0,2013-07-20 04:55:00
1:15 AM,69.1,66.4,91,30.15,7.0,Calm,Calm,-,N/A,,Clear,0,2013-07-20 05:15:00
1:35 AM,68.0,65.5,92,30.14,4.0,Calm,Calm,-,N/A,,Clear,0,2013-07-20 05:35:00
1:55 AM,67.6,65.5,93,30.14,3.0,Calm,Calm,-,N/A,,Scattered Clouds,0,2013-07-20 05:55:00
2:15 AM,68.0,65.8,93,30.14,5.0,Calm,Calm,-,N/A,,Scattered Clouds,0,2013-07-20 06:15:00
2:35 AM,69.1,65.3,88,30.14,10.0,Calm,Calm,-,N/A,,Clear,0,2013-07-20 06:35:00
2:55 AM,68.0,65.3,91,30.14,7.0,Calm,Calm,-,N/A,,Clear,0,2013-07-20 06:55:00
3:15 AM,67.6,64.9,91,30.14,5.0,NNW,4.6,-,N/A,,Clear,330,2013-07-20 07:15:00
3:35 AM,69.6,64.9,85,30.13,10.0,Calm,Calm,-,N/A,,Clear,0,2013-07-20 07:35:00
3:55 AM,68.2,64.2,87,30.13,5.0,Calm,Calm,-,N/A,,Scattered Clouds,0,2013-07-20 07:55:00
4:15 AM,67.1,64.9,93,30.13,4.0,Calm,Calm,-,N/A,,Scattered Clouds,0,2013-07-20 08:15:00
4:35 AM,67.8,64.2,88,30.13,7.0,Calm,Calm,-,N/A,,Clear,0,2013-07-20 08:35:00
4:55 AM,66.9,64.4,92,30.12,5.0,Calm,Calm,-,N/A,,Clear,0,2013-07-20 08:55:00
5:15 AM,66.9,64.6,92,30.12,5.0,WSW,3.5,-,N/A,,Clear,240,2013-07-20 09:15:00
5:35 AM,68.0,64.8,89,30.12,10.0,WSW,3.5,-,N/A,,Clear,250,2013-07-20 09:35:00
5:55 AM,67.3,63.7,88,30.13,2.0,NW,3.5,-,N/A,,Scattered Clouds,320,2013-07-20 09:55:00
6:15 AM,66.7,64.6,93,30.13,7.0,WNW,3.5,-,N/A,,Mostly Cloudy,300,2013-07-20 10:15:00
6:35 AM,68.9,63.5,83,30.13,10.0,Calm,Calm,-,N/A,,Overcast,0,2013-07-20 10:35:00
6:55 AM,67.3,63.7,88,30.13,7.0,Calm,Calm,-,N/A,,Overcast,0,2013-07-20 10:55:00
7:15 AM,70.7,63.7,78,30.14,10.0,West,6.9,-,N/A,,Overcast,280,2013-07-20 11:15:00
7:35 AM,68.4,64.2,87,30.14,7.0,WNW,5.8,-,N/A,,Mostly Cloudy,290,2013-07-20 11:35:00
7:55 AM,71.6,63.5,76,30.13,10.0,WNW,6.9,-,N/A,,Mostly Cloudy,290,2013-07-20 11:55:00
8:15 AM,70.0,64.0,81,30.14,10.0,Calm,Calm,-,N/A,,Overcast,0,2013-07-20 12:15:00
8:35 AM,67.5,64.9,92,30.15,0.8,Calm,Calm,-,N/A,,Overcast,0,2013-07-20 12:35:00
8:55 AM,73.6,63.0,69,30.15,10.0,West,8.1,-,N/A,,Overcast,280,2013-07-20 12:55:00
9:15 AM,73.2,64.0,73,30.16,10.0,West,3.5,-,N/A,,Mostly Cloudy,260,2013-07-20 13:15:00
9:35 AM,74.5,63.3,68,30.17,10.0,West,8.1,-,N/A,,Mostly Cloudy,280,2013-07-20 13:35:00
9:55 AM,73.2,61.5,67,30.17,10.0,WNW,20.7,26.5,N/A,,Overcast,290,2013-07-20 13:55:00
10:15 AM,67.6,61.5,81,30.18,4.0,West,12.7,21.9,0.15,Rain,Rain,280,2013-07-20 14:15:00
10:35 AM,67.5,61.5,81,30.18,10.0,WSW,3.5,-,0.16,Rain,Rain,240,2013-07-20 14:35:00
10:55 AM,67.1,62.8,86,30.17,10.0,West,3.5,-,0.18,Rain,Rain,280,2013-07-20 14:55:00
11:15 AM,66.9,63.7,89,30.17,7.0,Calm,Calm,-,0.01,Rain,Rain,0,2013-07-20 15:15:00
11:35 AM,67.3,64.6,91,30.17,10.0,WNW,5.8,-,0.01,Rain,Light Rain,290,2013-07-20 15:35:00
11:55 AM,69.4,65.8,88,30.17,10.0,WNW,5.8,-,0.01,Rain,Light Rain,300,2013-07-20 15:55:00
12:15 PM,71.2,65.7,82,30.15,10.0,WNW,3.5,-,N/A,Rain,Light Rain,290,2013-07-20 16:15:00
12:35 PM,72.1,66.0,81,30.15,10.0,WNW,6.9,-,N/A,,Scattered Clouds,300,2013-07-20 16:35:00
12:55 PM,73.8,65.1,74,30.14,10.0,WNW,8.1,-,N/A,,Clear,290,2013-07-20 16:55:00
1:15 PM,74.3,63.7,69,30.14,10.0,West,4.6,-,N/A,,Scattered Clouds,280,2013-07-20 17:15:00
1:35 PM,74.8,65.1,72,30.13,10.0,Calm,Calm,-,N/A,,Scattered Clouds,0,2013-07-20 17:35:00
1:55 PM,76.1,65.3,69,30.13,10.0,WNW,3.5,-,N/A,,Mostly Cloudy,290,2013-07-20 17:55:00
2:15 PM,77.5,62.6,60,30.12,10.0,West,10.4,-,N/A,,Scattered Clouds,270,2013-07-20 18:15:00
2:35 PM,78.3,62.8,59,30.11,10.0,WNW,6.9,-,N/A,,Clear,290,2013-07-20 18:35:00
2:55 PM,79.2,62.2,56,30.10,10.0,West,10.4,-,N/A,,Clear,270,2013-07-20 18:55:00
3:15 PM,78.8,61.5,55,30.11,10.0,WSW,4.6,-,N/A,,Scattered Clouds,250,2013-07-20 19:15:00
3:35 PM,77.9,62.4,59,30.09,10.0,West,6.9,-,N/A,,Mostly Cloudy,260,2013-07-20 19:35:00
3:55 PM,77.4,60.8,57,30.10,10.0,West,4.6,-,N/A,,Overcast,270,2013-07-20 19:55:00
4:15 PM,77.4,62.8,61,30.09,10.0,West,4.6,-,N/A,,Overcast,260,2013-07-20 20:15:00
4:35 PM,-9999,-9999,N/A,30.09,10.0,Calm,Calm,-,N/A,,Overcast,0,2013-07-20 20:35:00
4:55 PM,76.5,62.8,62,30.09,10.0,Calm,Calm,-,N/A,,Mostly Cloudy,0,2013-07-20 20:55:00
5:15 PM,75.0,68.2,79,30.09,10.0,SSE,3.5,-,N/A,,Scattered Clouds,160,2013-07-20 21:15:00
5:35 PM,74.5,67.8,80,30.08,10.0,Calm,Calm,-,N/A,,Scattered Clouds,0,2013-07-20 21:35:00
5:55 PM,74.3,67.1,78,30.08,10.0,Calm,Calm,-,N/A,,Clear,0,2013-07-20 21:55:00
6:15 PM,74.3,66.7,77,30.07,10.0,Calm,Calm,-,N/A,,Clear,0,2013-07-20 22:15:00
6:35 PM,73.9,65.5,75,30.07,10.0,Calm,Calm,-,N/A,,Clear,0,2013-07-20 22:35:00
6:55 PM,73.6,66.2,78,30.08,10.0,Calm,Calm,-,N/A,,Clear,0,2013-07-20 22:55:00
7:15 PM,73.0,66.7,81,30.08,10.0,SE,3.5,-,N/A,,Clear,130,2013-07-20 23:15:00
7:35 PM,72.5,65.8,80,30.08,10.0,Calm,Calm,-,N/A,,Clear,0,2013-07-20 23:35:00
7:55 PM,72.0,65.5,80,30.09,10.0,Calm,Calm,-,N/A,,Clear,0,2013-07-20 23:55:00
8:15 PM,70.9,65.5,83,30.09,10.0,Calm,Calm,-,N/A,,Clear,0,2013-07-21 00:15:00
8:35 PM,71.2,65.3,81,30.10,10.0,Calm,Calm,-,N/A,,Scattered Clouds,0,2013-07-21 00:35:00
8:55 PM,70.3,65.3,84,30.10,10.0,Calm,Calm,-,N/A,,Scattered Clouds,0,2013-07-21 00:55:00
9:15 PM,70.2,66.4,88,30.10,10.0,Calm,Calm,-,N/A,,Clear,0,2013-07-21 01:15:00
9:35 PM,69.3,66.2,90,30.11,7.0,Calm,Calm,-,N/A,,Scattered Clouds,0,2013-07-21 01:35:00
9:55 PM,68.9,66.4,92,30.12,7.0,Calm,Calm,-,N/A,,Scattered Clouds,0,2013-07-21 01:55:00
10:15 PM,68.9,66.6,92,30.13,0.2,Calm,Calm,-,N/A,Fog,Fog,0,2013-07-21 02:15:00
10:35 PM,68.5,66.4,93,30.13,0.2,Calm,Calm,-,N/A,Fog,Fog,0,2013-07-21 02:35:00
10:55 PM,68.5,66.6,93,30.13,0.5,Calm,Calm,-,N/A,Fog,Fog,0,2013-07-21 02:55:00
11:15 PM,68.4,66.4,93,30.13,0.8,Calm,Calm,-,N/A,,Overcast,0,2013-07-21 03:15:00
11:35 PM,68.4,66.4,93,30.13,4.0,Calm,Calm,-,N/A,,Mostly Cloudy,0,2013-07-21 03:35:00
11:55 PM,68.2,66.0,93,30.13,10.0,Calm,Calm,-,N/A,,Scattered Clouds,0,2013-07-21 03:55:00